DW8016 Weather Reports


time (UTC)temp
F
wind
direction
speed
knots
gust
knots
rain 1hr
in
rain 24hr
in
rain mn
in
humidity
%
barometer
mb
20260906042008 71 165 0.0 0.0 0.00 0.00 0.00 81 1012.6
20260906041020 72 165 0.0 0.0 0.00 0.00 0.00 81 1012.5
20260906034907 73 165 0.0 0.0 0.00 0.00 0.00 81 1012.3
20260906033844 73 165 0.0 0.0 0.00 0.00 0.00 79 1012.3
20260906032814 74 165 0.0 0.0 0.00 0.00 0.00 79 1012.4
20260906031826 74 165 0.0 0.0 0.00 0.00 0.00 78 1012.6
20260906030830 74 165 0.0 0.0 0.00 0.00 0.00 76 1012.5
20260906025812 75 165 0.0 0.0 0.00 0.00 0.00 75 1012.4
20260906024824 75 165 0.0 0.0 0.00 0.00 0.00 76 1012.2
20260906020356 76 165 0.0 0.0 0.00 0.00 0.00 73 1012.3
20260906014244 76 165 0.0 0.0 0.00 0.00 0.00 73 1012.1
20260906013308 76 165 0.0 0.0 0.00 0.00 0.00 73 1011.9
20260906012331 76 165 0.0 0.0 0.00 0.00 0.00 72 1011.8
20260906011341 76 165 0.0 0.0 0.00 0.00 0.00 72 1011.8
20260906010345 76 165 0.0 0.0 0.00 0.00 0.00 71 1011.5
20260906005400 77 165 0.0 0.0 0.00 0.00 0.00 71 1011.5
20260906004405 77 165 0.0 0.0 0.00 0.00 0.00 71 1011.3
20260906003359 77 165 0.0 0.0 0.00 0.00 0.00 71 1011.3
20260906002345 77 165 0.0 0.0 0.00 0.00 0.00 71 1011.2
20260906001405 78 165 0.0 0.0 0.00 0.00 0.00 70 1011.2
20260906000410 78 165 0.0 0.0 0.00 0.00 0.00 70 1011.1
20260905235348 78 165 0.0 0.0 0.00 0.00 0.00 70 1011.0
20260905234338 78 165 0.0 0.0 0.00 0.00 0.00 72 1011.0
20260905232248 79 165 0.0 0.0 0.00 0.00 0.00 73 1010.7
20260905231247 80 165 0.0 0.0 0.00 0.00 0.00 71 1010.6
20260905225110 80 165 0.0 0.0 0.00 0.00 0.00 67 1010.6
20260905224110 80 165 0.0 0.0 0.00 0.00 0.00 66 1010.5
20260905223046 81 165 0.0 0.0 0.00 0.00 0.00 66 1010.4
20260905222021 81 165 0.0 0.0 0.00 0.00 0.00 67 1010.5
20260905221010 81 165 0.0 0.0 0.00 0.00 0.00 66 1010.4
20260905214840 81 165 0.0 0.0 0.00 0.00 0.00 69 1010.3
20260905213807 80 165 0.0 0.9 0.00 0.00 0.00 66 1010.2
20260905212819 81 165 0.0 0.0 0.00 0.00 0.00 68 1010.0
20260905211814 81 165 0.0 0.0 0.00 0.00 0.00 67 1009.9
20260905210812 81 165 0.0 0.0 0.00 0.00 0.00 68 1009.8
20260905205811 81 165 0.0 0.9 0.00 0.00 0.00 67 1009.7
20260905204744 82 165 0.0 0.0 0.00 0.00 0.00 66 1009.8
20260905202600 83 0 0.0 0.9 0.00 0.00 0.00 65 1009.8
20260905201618 82 0 0.0 5.2 0.00 0.00 0.00 65 1009.9
20260905200641 83 9 0.0 3.5 0.00 0.00 0.00 65 1009.8
20260905195652 83 87 0.0 4.3 0.00 0.00 0.00 64 1010.0
20260905192430 83 104 0.0 4.3 0.00 0.00 0.00 63 1010.0
20260905191431 83 355 0.0 3.5 0.00 0.00 0.00 65 1010.1
20260905190408 83 91 0.9 4.3 0.00 0.00 0.00 67 1010.1
20260905185428 83 288 0.0 4.3 0.00 0.00 0.00 69 1010.3
20260905184359 82 315 0.0 0.9 0.00 0.00 0.00 70 1010.3
20260905183327 82 315 0.0 0.0 0.00 0.00 0.00 72 1010.5
20260905182334 82 316 0.0 2.6 0.00 0.00 0.00 72 1010.7
20260905181329 81 316 0.0 2.6 0.00 0.00 0.00 71 1010.7
20260905180323 81 288 0.0 0.9 0.00 0.00 0.00 72 1010.9
20260905175316 82 288 0.0 0.0 0.00 0.00 0.00 71 1011.1
20260905174253 83 288 0.0 0.9 0.00 0.00 0.00 68 1011.1
20260905173221 84 288 0.0 0.9 0.00 0.00 0.00 67 1011.2
20260905172245 85 288 0.0 3.5 0.00 0.00 0.00 65 1011.3
20260905171246 83 286 0.0 2.6 0.00 0.00 0.00 67 1011.4
20260905170250 82 282 0.0 2.6 0.00 0.00 0.00 69 1011.6
20260905165237 83 347 0.0 3.5 0.00 0.00 0.00 69 1011.8
20260905163029 82 248 0.0 2.6 0.00 0.00 0.00 71 1011.6
20260905160909 81 214 0.0 0.9 0.00 0.00 0.00 73 1012.0
20260905155932 81 65 0.0 0.9 0.00 0.00 0.00 72 1012.1
20260905153733 80 63 0.0 0.9 0.00 0.00 0.00 72 1012.0
20260905151630 80 64 0.0 0.0 0.00 0.00 0.00 72 1012.3
20260905150650 80 63 0.0 0.0 0.00 0.00 0.00 74 1012.4
20260905145709 79 63 0.0 0.0 0.00 0.00 0.00 72 1012.4
20260905144710 79 63 0.0 0.0 0.00 0.00 0.00 72 1012.2
20260905142528 80 63 0.0 2.6 0.00 0.00 0.00 71 1012.0
20260905141500 80 119 0.0 1.7 0.00 0.00 0.00 72 1011.9
20260905140457 80 98 0.0 4.3 0.00 0.00 0.00 73 1011.6
20260905134324 79 115 0.0 0.9 0.00 0.00 0.00 79 1011.4
20260905132143 78 333 0.0 0.9 0.00 0.00 0.00 82 1011.6
20260905131141 77 331 0.0 0.0 0.00 0.00 0.00 84 1011.6
20260905130126 77 331 0.0 0.0 0.00 0.00 0.00 84 1011.6
20260905125117 77 331 0.0 0.0 0.00 0.00 0.00 84 1011.6
20260905124100 77 331 0.0 0.0 0.00 0.00 0.00 84 1011.5
20260905123058 77 331 0.0 0.0 0.00 0.00 0.00 84 1011.2
20260905122047 77 199 0.0 0.0 0.00 0.00 0.00 85 1011.3
20260905121047 76 198 0.0 0.0 0.00 0.00 0.00 87 1011.3
20260905120107 75 198 0.0 0.0 0.00 0.00 0.00 89 1011.4
20260905115047 73 198 0.0 0.0 0.00 0.00 0.00 92 1011.1
20260905114049 72 198 0.0 0.0 0.00 0.00 0.00 94 1011.1
20260905111912 71 198 0.0 0.0 0.00 0.00 0.00 95 1011.1
20260905105752 70 269 0.0 0.0 0.00 0.00 0.00 94 1010.6
20260905104717 70 269 0.0 0.0 0.00 0.00 0.00 93 1010.5
20260905103708 70 269 0.0 0.0 0.00 0.00 0.00 93 1010.5
20260905102642 71 269 0.0 0.0 0.00 0.00 0.00 93 1010.2
20260905101613 71 269 0.0 0.0 0.00 0.00 0.00 93 1010.2
20260905100611 71 269 0.0 0.0 0.00 0.00 0.00 93 1010.3
20260905095555 71 269 0.0 0.0 0.00 0.00 0.00 93 1010.2
20260905093355 71 269 0.0 0.0 0.00 0.00 0.00 93 1010.1
20260905091306 71 269 0.0 0.0 0.00 0.00 0.00 92 1010.2
20260905090307 71 269 0.0 0.0 0.00 0.00 0.00 92 1010.2
20260905084228 71 269 0.0 0.0 0.00 0.00 0.00 92 1010.1
20260905083232 72 269 0.0 0.0 0.00 0.00 0.00 92 1010.2
20260905082223 72 269 0.0 0.0 0.00 0.00 0.00 92 1010.1
20260905081205 72 269 0.0 0.0 0.00 0.00 0.00 92 1010.2
20260905080155 72 269 0.0 0.0 0.00 0.00 0.00 92 1010.4
20260905075147 72 269 0.0 0.0 0.00 0.00 0.00 92 1010.4
20260905074115 72 269 0.0 0.0 0.00 0.00 0.00 91 1010.6
20260905073129 72 269 0.0 0.0 0.00 0.00 0.00 91 1010.5
20260905072129 73 269 0.0 0.0 0.00 0.00 0.00 91 1010.5
20260905070037 73 269 0.0 0.0 0.00 0.00 0.00 90 1010.6
20260905065038 73 269 0.0 0.0 0.00 0.00 0.00 90 1010.7
20260905064052 74 269 0.0 0.0 0.00 0.00 0.00 89 1010.9
20260905061909 74 269 0.0 0.0 0.00 0.00 0.00 88 1011.3
20260905060922 74 269 0.0 0.0 0.00 0.00 0.00 89 1011.3
20260905055946 74 269 0.0 0.0 0.00 0.00 0.00 88 1011.4
20260905054914 75 269 0.0 0.0 0.00 0.00 0.00 88 1011.4
20260905052723 75 269 0.0 0.0 0.00 0.01 0.00 86 1011.6
20260905051720 76 269 0.0 0.0 0.00 0.01 0.00 86 1011.7
20260905050648 76 269 0.0 0.0 0.00 0.02 0.00 85 1011.8
20260905045617 76 269 0.0 0.0 0.00 0.02 0.00 85 1011.9
20260905043417 76 267 0.0 3.5 0.00 0.02 0.00 85 1011.9
20260905042407 76 273 0.0 4.3 0.00 0.02 0.00 85 1012.0